FSB1001 SBSP-SBRF

Flight info

Callsign FSB1001
Flight time 2h 47m
Altitude 37000
Route NUXEL UZ23 ANBEX
Aircraft B738/M-SDE2E3FGHIRWXY/LB1

Departure

Time 2026-04-30 10:32
Airport Congonhas–Deputado Freitas Nobre Airport (SBSP)

Arrival

Time 2026-04-30 13:20
Airport Recife/Guararapes - Gilberto Freyre International Airport (SBRF)
Time Latitude Longitude Altitude Speed Heading
2026-04-30 10:23 -23.62717 -46.65821 2600 ft 0 kts 237°
2026-04-30 10:25 -23.62709 -46.65805 2600 ft 4 kts 253°
2026-04-30 10:25 -23.62709 -46.65779 2600 ft 4 kts 303°
2026-04-30 10:25 -23.62723 -46.65764 2600 ft 1 kts 327°
2026-04-30 10:25 -23.62726 -46.65762 2600 ft 0 kts 327°
2026-04-30 10:28 -23.62722 -46.65764 2600 ft 2 kts 327°
2026-04-30 10:28 -23.62706 -46.65773 2600 ft 4 kts 339°
2026-04-30 10:28 -23.62674 -46.65774 2600 ft 6 kts
2026-04-30 10:29 -23.62632 -46.65781 2601 ft 7 kts 339°
2026-04-30 10:29 -23.62588 -46.65810 2601 ft 8 kts 325°
2026-04-30 10:29 -23.62533 -46.65850 2601 ft 10 kts 329°
2026-04-30 10:29 -23.62468 -46.65892 2600 ft 12 kts 328°
2026-04-30 10:30 -23.62392 -46.65944 2600 ft 14 kts 328°
2026-04-30 10:30 -23.62305 -46.66004 2599 ft 15 kts 327°
2026-04-30 10:30 -23.62213 -46.66059 2591 ft 15 kts 330°
2026-04-30 10:30 -23.62132 -46.66116 2591 ft 8 kts 327°
2026-04-30 10:31 -23.62079 -46.66139 2594 ft 8 kts
2026-04-30 10:31 -23.62041 -46.66095 2593 ft 10 kts 101°
2026-04-30 10:31 -23.62059 -46.66070 2595 ft 0 kts 142°
2026-04-30 10:31 -23.62114 -46.66031 2596 ft 39 kts 147°
2026-04-30 10:32 -23.62559 -46.65723 2603 ft 111 kts 147°
2026-04-30 10:32 -23.63396 -46.65133 2626 ft 170 kts 148°
2026-04-30 10:32 -23.64431 -46.64352 3089 ft 190 kts 143°
2026-04-30 10:32 -23.65543 -46.63473 3772 ft 203 kts 141°
2026-04-30 10:33 -23.66270 -46.62158 4541 ft 211 kts 109°
2026-04-30 10:33 -23.66891 -46.60576 4727 ft 239 kts 117°
2026-04-30 10:33 -23.67680 -46.58886 4926 ft 262 kts 117°
2026-04-30 10:33 -23.68530 -46.57065 5230 ft 281 kts 117°
2026-04-30 10:34 -23.69423 -46.55127 5854 ft 288 kts 117°
2026-04-30 10:34 -23.70321 -46.53162 6600 ft 292 kts 117°
2026-04-30 10:34 -23.71230 -46.51165 7281 ft 295 kts 117°
2026-04-30 10:34 -23.71925 -46.49052 7977 ft 299 kts 95°
2026-04-30 10:35 -23.71804 -46.46784 8699 ft 300 kts 81°
2026-04-30 10:35 -23.71488 -46.44526 9442 ft 303 kts 80°
2026-04-30 10:35 -23.71143 -46.42241 10128 ft 307 kts 80°
2026-04-30 10:35 -23.70788 -46.39894 10510 ft 323 kts 80°
2026-04-30 10:36 -23.70416 -46.37385 10653 ft 346 kts 81°
2026-04-30 10:36 -23.70027 -46.34716 10851 ft 365 kts 81°
2026-04-30 10:36 -23.69627 -46.31944 11280 ft 374 kts 81°
2026-04-30 10:36 -23.69223 -46.29127 11844 ft 378 kts 81°
2026-04-30 10:37 -23.68817 -46.26290 12497 ft 380 kts 81°
2026-04-30 10:37 -23.68406 -46.23415 13054 ft 385 kts 81°
2026-04-30 10:37 -23.67996 -46.20550 13600 ft 389 kts 81°
2026-04-30 10:37 -23.67576 -46.17618 14121 ft 394 kts 81°
2026-04-30 10:38 -23.66855 -46.14745 14629 ft 394 kts 62°
2026-04-30 10:38 -23.65258 -46.12332 15154 ft 392 kts 42°
2026-04-30 10:38 -23.63059 -46.10580 15623 ft 392 kts 25°
2026-04-30 10:38 -23.60618 -46.09253 16110 ft 394 kts 23°
2026-04-30 10:39 -23.58133 -46.07938 16572 ft 398 kts 23°
2026-04-30 10:39 -23.55638 -46.06585 17044 ft 402 kts 24°
2026-04-30 10:39 -23.53132 -46.05201 17519 ft 406 kts 24°
2026-04-30 10:39 -23.50639 -46.03814 17980 ft 409 kts 24°
2026-04-30 10:40 -23.48093 -46.02398 18435 ft 413 kts 24°
2026-04-30 10:40 -23.45493 -46.00954 18839 ft 415 kts 23°
2026-04-30 10:40 -23.42877 -45.99730 19231 ft 412 kts
2026-04-30 10:40 -23.40065 -45.99415 19667 ft 404 kts 356°
2026-04-30 10:41 -23.37252 -45.99369 20130 ft 405 kts 356°
2026-04-30 10:41 -23.34423 -45.99312 20534 ft 407 kts 356°
2026-04-30 10:41 -23.31607 -45.99232 20994 ft 408 kts 357°
2026-04-30 10:41 -23.28741 -45.99135 21427 ft 409 kts 357°
2026-04-30 10:42 -23.25914 -45.99035 21827 ft 411 kts 357°
2026-04-30 10:42 -23.23047 -45.98932 22228 ft 413 kts 357°
2026-04-30 10:42 -23.20165 -45.98830 22613 ft 415 kts 357°
2026-04-30 10:42 -23.17277 -45.98728 23006 ft 416 kts 357°
2026-04-30 10:43 -23.14371 -45.98626 23416 ft 418 kts 356°
2026-04-30 10:43 -23.11465 -45.98524 23758 ft 420 kts 356°
2026-04-30 10:43 -23.08539 -45.98422 24111 ft 419 kts 357°
2026-04-30 10:43 -23.05627 -45.98320 24474 ft 419 kts 356°
2026-04-30 10:44 -23.02695 -45.98219 24745 ft 423 kts 356°
2026-04-30 10:44 -22.99747 -45.98117 24991 ft 426 kts 356°
2026-04-30 10:44 -22.96773 -45.98014 25268 ft 428 kts 357°
2026-04-30 10:44 -22.93792 -45.97911 25578 ft 429 kts 356°
2026-04-30 10:45 -22.90801 -45.97806 25835 ft 431 kts 356°
2026-04-30 10:45 -22.87827 -45.97623 26065 ft 436 kts
2026-04-30 10:45 -22.84830 -45.96986 26359 ft 441 kts
2026-04-30 10:45 -22.81847 -45.96178 26652 ft 443 kts
2026-04-30 10:46 -22.78859 -45.95332 26888 ft 446 kts
2026-04-30 10:46 -22.75845 -45.94487 27132 ft 448 kts
2026-04-30 10:46 -22.72822 -45.93662 27380 ft 449 kts
2026-04-30 10:46 -22.69773 -45.92850 27644 ft 450 kts
2026-04-30 10:47 -22.66746 -45.92062 27887 ft 452 kts
2026-04-30 10:47 -22.63680 -45.91274 28098 ft 454 kts
2026-04-30 10:47 -22.60581 -45.90480 28298 ft 456 kts
2026-04-30 10:47 -22.57470 -45.89681 28466 ft 458 kts
2026-04-30 10:48 -22.54385 -45.88889 28690 ft 460 kts
2026-04-30 10:48 -22.51260 -45.88087 28932 ft 461 kts
2026-04-30 10:48 -22.48120 -45.87281 29166 ft 462 kts
2026-04-30 10:48 -22.45017 -45.86484 29379 ft 464 kts
2026-04-30 10:49 -22.41844 -45.85670 29569 ft 466 kts
2026-04-30 10:49 -22.38680 -45.84860 29748 ft 468 kts
2026-04-30 10:49 -22.35513 -45.84048 29945 ft 469 kts
2026-04-30 10:49 -22.32347 -45.83235 30180 ft 470 kts
2026-04-30 10:50 -22.29182 -45.82345 30415 ft 473 kts 15°
2026-04-30 10:50 -22.26284 -45.80674 30596 ft 484 kts 33°
2026-04-30 10:50 -22.23620 -45.78376 30880 ft 484 kts 35°
2026-04-30 10:50 -22.21031 -45.76078 31070 ft 485 kts 36°
2026-04-30 10:51 -22.18438 -45.73770 31272 ft 486 kts 35°
2026-04-30 10:51 -22.15800 -45.71438 31501 ft 486 kts 35°
2026-04-30 10:51 -22.13170 -45.69134 31753 ft 485 kts 34°
2026-04-30 10:51 -22.10561 -45.66867 31983 ft 485 kts 34°
2026-04-30 10:52 -22.07917 -45.64582 32187 ft 485 kts 34°
2026-04-30 10:52 -22.05301 -45.62328 32416 ft 485 kts 34°
2026-04-30 10:52 -22.02660 -45.60056 32722 ft 482 kts 34°
2026-04-30 10:52 -22.00067 -45.57824 33061 ft 480 kts 34°
2026-04-30 10:53 -21.97459 -45.55581 33278 ft 480 kts 34°
2026-04-30 10:53 -21.94849 -45.53338 33460 ft 481 kts 34°
2026-04-30 10:53 -21.92234 -45.51091 33671 ft 481 kts 34°
2026-04-30 10:53 -21.89619 -45.48844 33911 ft 481 kts 34°
2026-04-30 10:54 -21.86990 -45.46585 34131 ft 481 kts 34°
2026-04-30 10:54 -21.84395 -45.44357 34287 ft 481 kts 34°
2026-04-30 10:54 -21.81748 -45.42086 34481 ft 481 kts 34°
2026-04-30 10:54 -21.79161 -45.39866 34694 ft 480 kts 34°
2026-04-30 10:55 -21.76558 -45.37634 34898 ft 479 kts 34°
2026-04-30 10:55 -21.73952 -45.35401 35068 ft 480 kts 34°
2026-04-30 10:55 -21.71337 -45.33161 35219 ft 480 kts 34°
2026-04-30 10:55 -21.68730 -45.30930 35432 ft 479 kts 34°
2026-04-30 10:56 -21.66106 -45.28684 35636 ft 478 kts 34°
2026-04-30 10:56 -21.63530 -45.26481 35787 ft 479 kts 34°
2026-04-30 10:56 -21.60906 -45.24237 35892 ft 480 kts 34°
2026-04-30 10:56 -21.58295 -45.22007 36061 ft 480 kts 34°
2026-04-30 10:57 -21.55687 -45.19779 36275 ft 478 kts 34°
2026-04-30 10:57 -21.53074 -45.17548 36484 ft 477 kts 34°
2026-04-30 10:57 -21.50491 -45.15343 36662 ft 477 kts 34°
2026-04-30 10:57 -21.47904 -45.13137 36797 ft 477 kts 34°
2026-04-30 10:58 -21.45314 -45.10930 36923 ft 478 kts 34°
2026-04-30 10:58 -21.42707 -45.08708 37088 ft 477 kts 34°
2026-04-30 10:58 -21.37506 -45.04280 37126 ft 478 kts 34°
2026-04-30 10:59 -21.32310 -44.99858 37139 ft 475 kts 34°
2026-04-30 10:59 -21.27145 -44.95469 37139 ft 474 kts 34°
2026-04-30 11:00 -21.21961 -44.91067 37134 ft 472 kts 34°
2026-04-30 11:00 -21.16811 -44.86694 37131 ft 472 kts 35°
2026-04-30 11:01 -21.11690 -44.82327 37147 ft 471 kts 35°
2026-04-30 11:01 -21.06571 -44.77966 37135 ft 472 kts 35°
2026-04-30 11:02 -21.01360 -44.73719 37151 ft 471 kts 32°
2026-04-30 11:02 -20.95970 -44.69685 37145 ft 472 kts 31°
2026-04-30 11:03 -20.90612 -44.65652 37146 ft 473 kts 32°
2026-04-30 11:04 -20.82564 -44.59512 37145 ft 475 kts 32°
2026-04-30 11:04 -20.77175 -44.55403 37146 ft 476 kts 32°
2026-04-30 11:05 -20.71783 -44.51294 37147 ft 476 kts 32°
2026-04-30 11:05 -20.66388 -44.47185 37155 ft 476 kts 32°
2026-04-30 11:06 -20.61005 -44.43090 37131 ft 476 kts 32°
2026-04-30 11:06 -20.55642 -44.39013 37146 ft 475 kts 32°
2026-04-30 11:07 -20.50257 -44.34923 37152 ft 474 kts 32°
2026-04-30 11:07 -20.44906 -44.30862 37145 ft 473 kts 32°
2026-04-30 11:08 -20.39599 -44.26742 37144 ft 472 kts 34°
2026-04-30 11:08 -20.34355 -44.22546 37150 ft 471 kts 34°
2026-04-30 11:09 -20.29104 -44.18356 37150 ft 470 kts 34°
2026-04-30 11:09 -20.23882 -44.14214 37149 ft 470 kts 34°
2026-04-30 11:10 -20.18619 -44.10049 37148 ft 470 kts 34°
2026-04-30 11:10 -20.13381 -44.05906 37160 ft 471 kts 34°
2026-04-30 11:11 -20.08123 -44.01750 37166 ft 472 kts 34°
2026-04-30 11:11 -20.02840 -43.97603 37167 ft 473 kts 34°
2026-04-30 11:12 -19.97539 -43.93450 37175 ft 473 kts 34°
2026-04-30 11:12 -19.93126 -43.89993 37189 ft 474 kts 34°
2026-04-30 11:13 -19.86947 -43.85154 37179 ft 474 kts 34°
2026-04-30 11:13 -19.81584 -43.81084 37176 ft 473 kts 32°
2026-04-30 11:14 -19.77020 -43.77810 37174 ft 473 kts 32°
2026-04-30 11:14 -19.71609 -43.73940 37167 ft 472 kts 32°
2026-04-30 11:15 -19.66181 -43.70027 37163 ft 471 kts 32°
2026-04-30 11:15 -19.60769 -43.66111 37170 ft 470 kts 32°
2026-04-30 11:16 -19.55366 -43.62203 37163 ft 469 kts 32°
2026-04-30 11:16 -19.49992 -43.58321 37157 ft 468 kts 32°
2026-04-30 11:17 -19.44598 -43.54428 37146 ft 467 kts 32°
2026-04-30 11:17 -19.39262 -43.50580 37150 ft 466 kts 32°
2026-04-30 11:18 -19.33901 -43.46717 37142 ft 466 kts 32°
2026-04-30 11:18 -19.25966 -43.40757 37152 ft 466 kts 35°
2026-04-30 11:19 -19.20817 -43.36592 37151 ft 466 kts 36°
2026-04-30 11:19 -19.15645 -43.32437 37147 ft 466 kts 35°
2026-04-30 11:20 -19.10466 -43.28322 37148 ft 466 kts 35°
2026-04-30 11:20 -19.05276 -43.24215 37148 ft 466 kts 35°
2026-04-30 11:21 -19.00116 -43.20133 37155 ft 466 kts 35°
2026-04-30 11:21 -18.94888 -43.16000 37147 ft 467 kts 35°
2026-04-30 11:22 -18.89710 -43.11909 37142 ft 468 kts 35°
2026-04-30 11:22 -18.84468 -43.07771 37147 ft 468 kts 35°
2026-04-30 11:23 -18.79247 -43.03653 37139 ft 468 kts 36°
2026-04-30 11:24 -18.71430 -42.97493 37149 ft 468 kts 36°
2026-04-30 11:24 -18.66221 -42.93393 37150 ft 468 kts 36°
2026-04-30 11:25 -18.58380 -42.87227 37157 ft 468 kts 36°
2026-04-30 11:26 -18.47969 -42.79045 37144 ft 467 kts 36°
2026-04-30 11:26 -18.42767 -42.74957 37148 ft 466 kts 36°
2026-04-30 11:27 -18.37578 -42.70882 37146 ft 466 kts 36°
2026-04-30 11:27 -18.32382 -42.66807 37144 ft 465 kts 36°
2026-04-30 11:28 -18.24607 -42.60713 37141 ft 464 kts 36°
2026-04-30 11:29 -18.19426 -42.56657 37141 ft 464 kts 36°
2026-04-30 11:29 -18.11682 -42.50599 37142 ft 463 kts 36°
2026-04-30 11:30 -18.03932 -42.44543 37144 ft 462 kts 36°
2026-04-30 11:31 -17.98768 -42.40512 37145 ft 462 kts 36°
2026-04-30 11:31 -17.93595 -42.36477 37143 ft 462 kts 36°
2026-04-30 11:32 -17.88430 -42.32451 37145 ft 463 kts 36°
2026-04-30 11:32 -17.83267 -42.28429 37148 ft 463 kts 36°
2026-04-30 11:33 -17.75523 -42.22404 37151 ft 464 kts 37°
2026-04-30 11:33 -17.70324 -42.18362 37153 ft 465 kts 37°
2026-04-30 11:34 -17.65122 -42.14320 37155 ft 465 kts 37°
2026-04-30 11:34 -17.59919 -42.10282 37152 ft 465 kts 37°
2026-04-30 11:35 -17.54744 -42.06267 37151 ft 466 kts 37°
2026-04-30 11:35 -17.49539 -42.02232 37150 ft 466 kts 37°
2026-04-30 11:36 -17.44328 -41.98194 37150 ft 466 kts 37°
2026-04-30 11:36 -17.39117 -41.94154 37146 ft 465 kts 37°
2026-04-30 11:37 -17.33907 -41.90116 37146 ft 465 kts 38°
2026-04-30 11:37 -17.28739 -41.86116 37143 ft 465 kts 38°
2026-04-30 11:38 -17.23547 -41.82096 37145 ft 464 kts 38°
2026-04-30 11:38 -17.18356 -41.78084 37143 ft 463 kts 37°
2026-04-30 11:39 -17.13179 -41.74083 37141 ft 463 kts 37°
2026-04-30 11:39 -17.08004 -41.70088 37142 ft 462 kts 37°
2026-04-30 11:40 -17.02836 -41.66102 37143 ft 461 kts 38°
2026-04-30 11:40 -16.97676 -41.62123 37147 ft 461 kts 38°
2026-04-30 11:41 -16.92549 -41.58172 37143 ft 460 kts 38°
2026-04-30 11:41 -16.87365 -41.54182 37141 ft 460 kts 37°
2026-04-30 11:42 -16.82249 -41.50244 37144 ft 459 kts 38°
2026-04-30 11:42 -16.77105 -41.46289 37147 ft 459 kts 37°
2026-04-30 11:43 -16.71965 -41.42339 37146 ft 459 kts 38°
2026-04-30 11:43 -16.66821 -41.38378 37145 ft 459 kts 38°
2026-04-30 11:44 -16.61693 -41.34396 37141 ft 459 kts 38°
2026-04-30 11:44 -16.56566 -41.30414 37138 ft 459 kts 38°
2026-04-30 11:45 -16.51441 -41.26439 37141 ft 459 kts 38°
2026-04-30 11:45 -16.46308 -41.22464 37137 ft 459 kts 38°
2026-04-30 11:46 -16.41182 -41.18497 37136 ft 459 kts 38°
2026-04-30 11:46 -16.36089 -41.14559 37137 ft 459 kts 38°
2026-04-30 11:47 -16.30954 -41.10591 37137 ft 459 kts 38°
2026-04-30 11:47 -16.25829 -41.06633 37133 ft 459 kts 38°
2026-04-30 11:48 -16.20709 -41.02681 37140 ft 458 kts 38°
2026-04-30 11:48 -16.15584 -40.98728 37135 ft 458 kts 38°
2026-04-30 11:49 -16.10465 -40.94783 37133 ft 458 kts 38°
2026-04-30 11:49 -16.05343 -40.90838 37138 ft 457 kts 38°
2026-04-30 11:50 -16.00235 -40.86906 37135 ft 457 kts 38°
2026-04-30 11:50 -15.95120 -40.82971 37135 ft 457 kts 38°
2026-04-30 11:51 -15.90049 -40.79073 37138 ft 457 kts 38°
2026-04-30 11:51 -15.84946 -40.75152 37130 ft 456 kts 38°
2026-04-30 11:52 -15.79845 -40.71236 37132 ft 456 kts 38°
2026-04-30 11:52 -15.74742 -40.67320 37138 ft 456 kts 38°
2026-04-30 11:53 -15.69637 -40.63406 37132 ft 456 kts 38°
2026-04-30 11:53 -15.64524 -40.59488 37132 ft 456 kts 38°
2026-04-30 11:54 -15.59412 -40.55573 37124 ft 456 kts 38°
2026-04-30 11:54 -15.54331 -40.51684 37132 ft 456 kts 38°
2026-04-30 11:55 -15.49221 -40.47776 37123 ft 457 kts 38°
2026-04-30 11:55 -15.44107 -40.43867 37115 ft 457 kts 38°
2026-04-30 11:56 -15.38991 -40.39959 37120 ft 457 kts 38°
2026-04-30 11:56 -15.33869 -40.36048 37117 ft 457 kts 38°
2026-04-30 11:57 -15.28747 -40.32141 37114 ft 457 kts 38°
2026-04-30 11:57 -15.23630 -40.28240 37107 ft 456 kts 38°
2026-04-30 11:58 -15.18520 -40.24347 37114 ft 456 kts 38°
2026-04-30 11:58 -15.13408 -40.20454 37121 ft 456 kts 39°
2026-04-30 11:59 -15.08328 -40.16587 37118 ft 456 kts 39°
2026-04-30 11:59 -15.03215 -40.12699 37106 ft 456 kts 39°
2026-04-30 12:00 -14.98112 -40.08820 37112 ft 455 kts 39°
2026-04-30 12:00 -14.93005 -40.04941 37115 ft 455 kts 39°
2026-04-30 12:01 -14.87898 -40.01063 37115 ft 455 kts 39°
2026-04-30 12:01 -14.82785 -39.97184 37109 ft 455 kts 39°
2026-04-30 12:02 -14.77684 -39.93316 37105 ft 455 kts 39°
2026-04-30 12:02 -14.72572 -39.89442 37102 ft 455 kts 39°
2026-04-30 12:03 -14.65776 -39.84295 37096 ft 455 kts 39°
2026-04-30 12:04 -14.60668 -39.80430 37097 ft 455 kts 39°
2026-04-30 12:04 -14.55558 -39.76565 37103 ft 455 kts 39°
2026-04-30 12:05 -14.50448 -39.72703 37093 ft 456 kts 39°
2026-04-30 12:05 -14.45336 -39.68841 37096 ft 456 kts 39°
2026-04-30 12:06 -14.40217 -39.64976 37091 ft 456 kts 39°
2026-04-30 12:06 -14.35102 -39.61116 37088 ft 456 kts 39°
2026-04-30 12:07 -14.29991 -39.57264 37084 ft 456 kts 39°
2026-04-30 12:07 -14.24862 -39.53417 37085 ft 456 kts 38°
2026-04-30 12:08 -14.19732 -39.49576 37091 ft 456 kts 39°
2026-04-30 12:08 -14.14592 -39.45727 37090 ft 456 kts 39°
2026-04-30 12:09 -14.09457 -39.41883 37078 ft 456 kts 39°
2026-04-30 12:09 -14.04321 -39.38041 37081 ft 456 kts 39°
2026-04-30 12:10 -13.99181 -39.34197 37087 ft 456 kts 39°
2026-04-30 12:10 -13.94080 -39.30385 37081 ft 455 kts 39°
2026-04-30 12:11 -13.88949 -39.26553 37081 ft 455 kts 39°
2026-04-30 12:11 -13.83821 -39.22724 37073 ft 455 kts 39°
2026-04-30 12:12 -13.78693 -39.18899 37079 ft 455 kts 39°
2026-04-30 12:12 -13.73560 -39.15071 37076 ft 455 kts 39°
2026-04-30 12:13 -13.68435 -39.11252 37069 ft 455 kts 39°
2026-04-30 12:13 -13.63319 -39.07441 37075 ft 455 kts 39°
2026-04-30 12:14 -13.58183 -39.03618 37072 ft 455 kts 38°
2026-04-30 12:14 -13.53070 -38.99831 37072 ft 455 kts 38°
2026-04-30 12:15 -13.47919 -38.96024 37068 ft 455 kts 38°
2026-04-30 12:15 -13.42788 -38.92232 37067 ft 455 kts 38°
2026-04-30 12:16 -13.37648 -38.88435 37060 ft 455 kts 38°
2026-04-30 12:16 -13.32522 -38.84649 37063 ft 455 kts 38°
2026-04-30 12:17 -13.24812 -38.78958 37061 ft 455 kts 38°
2026-04-30 12:17 -13.19661 -38.75159 37060 ft 455 kts 38°
2026-04-30 12:18 -13.14538 -38.71382 37059 ft 456 kts 38°
2026-04-30 12:18 -13.09364 -38.67570 37061 ft 456 kts 38°
2026-04-30 12:19 -13.04226 -38.63787 37062 ft 456 kts 38°
2026-04-30 12:19 -12.99060 -38.59984 37049 ft 456 kts 38°
2026-04-30 12:20 -12.93933 -38.56213 37049 ft 456 kts 38°
2026-04-30 12:20 -12.88768 -38.52416 37049 ft 456 kts 38°
2026-04-30 12:21 -12.83622 -38.48634 37049 ft 456 kts 38°
2026-04-30 12:21 -12.78438 -38.44826 37045 ft 456 kts 38°
2026-04-30 12:22 -12.73323 -38.41071 37054 ft 456 kts 38°
2026-04-30 12:22 -12.68144 -38.37271 37047 ft 456 kts 38°
2026-04-30 12:23 -12.62993 -38.33493 37044 ft 455 kts 38°
2026-04-30 12:23 -12.57830 -38.29709 37041 ft 455 kts 38°
2026-04-30 12:24 -12.52682 -38.25937 37045 ft 455 kts 38°
2026-04-30 12:24 -12.47561 -38.22187 37045 ft 455 kts 38°
2026-04-30 12:25 -12.42384 -38.18398 37040 ft 455 kts 38°
2026-04-30 12:25 -12.37239 -38.14635 37043 ft 455 kts 38°
2026-04-30 12:26 -12.32105 -38.10881 37041 ft 455 kts 38°
2026-04-30 12:26 -12.26950 -38.07114 37037 ft 455 kts 38°
2026-04-30 12:27 -12.21814 -38.03364 37037 ft 455 kts 38°
2026-04-30 12:27 -12.16631 -37.99583 37036 ft 455 kts 38°
2026-04-30 12:28 -12.11485 -37.95830 37034 ft 455 kts 38°
2026-04-30 12:28 -12.06348 -37.92086 37036 ft 455 kts 38°
2026-04-30 12:29 -12.01185 -37.88325 37034 ft 455 kts 38°
2026-04-30 12:29 -11.96035 -37.84574 37032 ft 456 kts 38°
2026-04-30 12:30 -11.90878 -37.80821 37033 ft 456 kts 38°
2026-04-30 12:30 -11.85700 -37.77055 37029 ft 456 kts 38°
2026-04-30 12:31 -11.80546 -37.73317 37031 ft 456 kts 38°
2026-04-30 12:31 -11.75344 -37.69546 37026 ft 456 kts 38°
2026-04-30 12:32 -11.70165 -37.65794 37029 ft 457 kts 38°
2026-04-30 12:32 -11.65001 -37.62053 37027 ft 457 kts 38°
2026-04-30 12:33 -11.59808 -37.58293 37025 ft 457 kts 38°
2026-04-30 12:33 -11.54627 -37.54543 37015 ft 457 kts 38°
2026-04-30 12:34 -11.49477 -37.50818 37022 ft 457 kts 38°
2026-04-30 12:34 -11.44274 -37.47056 37023 ft 457 kts 38°
2026-04-30 12:35 -11.39100 -37.43316 37013 ft 457 kts 38°
2026-04-30 12:35 -11.33906 -37.39564 37012 ft 457 kts 38°
2026-04-30 12:36 -11.28729 -37.35826 37016 ft 456 kts 37°
2026-04-30 12:36 -11.23565 -37.32099 37011 ft 456 kts 38°
2026-04-30 12:37 -11.18379 -37.28358 37010 ft 456 kts 37°
2026-04-30 12:37 -11.13218 -37.24636 37016 ft 456 kts 37°
2026-04-30 12:38 -11.08011 -37.20883 37018 ft 456 kts 37°
2026-04-30 12:38 -11.02866 -37.17176 37021 ft 456 kts 37°
2026-04-30 12:39 -10.97673 -37.13440 37021 ft 456 kts 37°
2026-04-30 12:39 -10.92501 -37.09732 37020 ft 456 kts 37°
2026-04-30 12:40 -10.87298 -37.06006 37021 ft 455 kts 37°
2026-04-30 12:40 -10.82122 -37.02299 37016 ft 455 kts 37°
2026-04-30 12:41 -10.76963 -36.98605 37016 ft 455 kts 37°
2026-04-30 12:41 -10.71796 -36.94907 37006 ft 456 kts 37°
2026-04-30 12:42 -10.66595 -36.91185 37003 ft 455 kts 37°
2026-04-30 12:42 -10.61428 -36.87491 37002 ft 456 kts 37°
2026-04-30 12:43 -10.56216 -36.83765 36999 ft 456 kts 37°
2026-04-30 12:43 -10.51056 -36.80078 37005 ft 456 kts 37°
2026-04-30 12:44 -10.45873 -36.76376 37001 ft 456 kts 37°
2026-04-30 12:44 -10.40654 -36.72650 37006 ft 456 kts 37°
2026-04-30 12:45 -10.35462 -36.68945 36997 ft 456 kts 37°
2026-04-30 12:45 -10.30261 -36.65235 37001 ft 456 kts 37°
2026-04-30 12:46 -10.25097 -36.61553 37002 ft 456 kts 37°
2026-04-30 12:46 -10.19896 -36.57846 37009 ft 457 kts 37°
2026-04-30 12:47 -10.14687 -36.54135 37002 ft 458 kts 37°
2026-04-30 12:47 -10.09463 -36.50428 37004 ft 458 kts 37°
2026-04-30 12:48 -10.04240 -36.46729 37008 ft 457 kts 37°
2026-04-30 12:48 -9.99904 -36.43659 37002 ft 457 kts 37°
2026-04-30 12:49 -9.94689 -36.39968 37008 ft 457 kts 37°
2026-04-30 12:49 -9.89472 -36.36276 37008 ft 457 kts 36°
2026-04-30 12:50 -9.84258 -36.32587 37006 ft 457 kts 36°
2026-04-30 12:50 -9.79022 -36.28884 36606 ft 463 kts 37°
2026-04-30 12:51 -9.76388 -36.27020 36282 ft 458 kts 37°
2026-04-30 12:51 -9.73783 -36.25181 35837 ft 455 kts 37°
2026-04-30 12:51 -9.71200 -36.23355 35404 ft 451 kts 37°
2026-04-30 12:51 -9.68638 -36.21545 35003 ft 447 kts 36°
2026-04-30 12:52 -9.66089 -36.19744 34603 ft 444 kts 36°
2026-04-30 12:52 -9.63564 -36.17959 34163 ft 442 kts 37°
2026-04-30 12:52 -9.61051 -36.16183 33725 ft 439 kts 37°
2026-04-30 12:52 -9.58554 -36.14420 33283 ft 436 kts 37°
2026-04-30 12:53 -9.56106 -36.12692 32868 ft 432 kts 37°
2026-04-30 12:53 -9.53652 -36.10960 32462 ft 429 kts 37°
2026-04-30 12:53 -9.51211 -36.09238 32062 ft 426 kts 37°
2026-04-30 12:53 -9.48791 -36.07531 31662 ft 422 kts 37°
2026-04-30 12:54 -9.46390 -36.05837 31270 ft 419 kts 37°
2026-04-30 12:54 -9.44000 -36.04151 30875 ft 417 kts 37°
2026-04-30 12:54 -9.41630 -36.02479 30507 ft 414 kts 37°
2026-04-30 12:54 -9.39275 -36.00818 30097 ft 412 kts 37°
2026-04-30 12:55 -9.36930 -35.99165 29662 ft 409 kts 37°
2026-04-30 12:55 -9.34604 -35.97526 29223 ft 406 kts 37°
2026-04-30 12:55 -9.32297 -35.95900 28817 ft 402 kts 37°
2026-04-30 12:55 -9.30008 -35.94287 28409 ft 399 kts 37°
2026-04-30 12:56 -9.27741 -35.92690 28014 ft 396 kts 37°
2026-04-30 12:56 -9.25486 -35.91102 27616 ft 393 kts 37°
2026-04-30 12:56 -9.23256 -35.89531 27228 ft 390 kts 37°
2026-04-30 12:56 -9.21035 -35.87967 26841 ft 387 kts 37°
2026-04-30 12:57 -9.18836 -35.86418 26452 ft 384 kts 37°
2026-04-30 12:57 -9.16649 -35.84879 26072 ft 382 kts 37°
2026-04-30 12:57 -9.14471 -35.83346 25691 ft 379 kts 37°
2026-04-30 12:57 -9.12311 -35.81825 25304 ft 377 kts 37°
2026-04-30 12:58 -9.10160 -35.80311 24912 ft 375 kts 38°
2026-04-30 12:58 -9.08019 -35.78804 24530 ft 374 kts 38°
2026-04-30 12:58 -9.05917 -35.77327 24135 ft 373 kts 37°
2026-04-30 12:58 -9.03794 -35.75837 23772 ft 371 kts 38°
2026-04-30 12:59 -9.01687 -35.74339 23341 ft 369 kts 40°
2026-04-30 12:59 -8.99739 -35.72675 22943 ft 364 kts 45°
2026-04-30 12:59 -8.97913 -35.70918 22560 ft 361 kts 47°
2026-04-30 12:59 -8.96125 -35.69146 22178 ft 358 kts 47°
2026-04-30 13:00 -8.94353 -35.67395 21804 ft 355 kts 47°
2026-04-30 13:00 -8.92579 -35.65662 21449 ft 353 kts 46°
2026-04-30 13:00 -8.90815 -35.63955 21070 ft 350 kts 46°
2026-04-30 13:00 -8.89056 -35.62264 20708 ft 348 kts 46°
2026-04-30 13:01 -8.87305 -35.60590 20343 ft 345 kts 46°
2026-04-30 13:01 -8.85563 -35.58928 19990 ft 343 kts 46°
2026-04-30 13:01 -8.83833 -35.57278 19625 ft 341 kts 46°
2026-04-30 13:01 -8.82130 -35.55655 19268 ft 340 kts 46°
2026-04-30 13:02 -8.80412 -35.54019 18906 ft 338 kts 46°
2026-04-30 13:02 -8.78700 -35.52389 18534 ft 337 kts 46°
2026-04-30 13:02 -8.76988 -35.50758 18154 ft 336 kts 46°
2026-04-30 13:02 -8.75295 -35.49146 17771 ft 334 kts 46°
2026-04-30 13:03 -8.73607 -35.47539 17395 ft 332 kts 46°
2026-04-30 13:03 -8.71935 -35.45947 17032 ft 329 kts 46°
2026-04-30 13:03 -8.70271 -35.44364 16669 ft 327 kts 46°
2026-04-30 13:03 -8.68622 -35.42795 16320 ft 325 kts 46°
2026-04-30 13:04 -8.66981 -35.41237 15973 ft 323 kts 45°
2026-04-30 13:04 -8.65348 -35.39686 15626 ft 321 kts 45°
2026-04-30 13:04 -8.63723 -35.38144 15291 ft 320 kts 45°
2026-04-30 13:04 -8.62105 -35.36609 14945 ft 318 kts 45°
2026-04-30 13:05 -8.60493 -35.35079 14583 ft 317 kts 45°
2026-04-30 13:05 -8.58887 -35.33556 14229 ft 317 kts 45°
2026-04-30 13:05 -8.57305 -35.32055 13898 ft 316 kts 45°
2026-04-30 13:06 -8.54107 -35.29021 13161 ft 314 kts 44°
2026-04-30 13:06 -8.52517 -35.27514 12815 ft 312 kts 44°
2026-04-30 13:06 -8.50940 -35.26018 12478 ft 310 kts 44°
2026-04-30 13:06 -8.49371 -35.24532 12134 ft 309 kts 44°
2026-04-30 13:07 -8.47809 -35.23050 11797 ft 307 kts 44°
2026-04-30 13:07 -8.46258 -35.21580 11465 ft 305 kts 44°
2026-04-30 13:07 -8.44715 -35.20118 11142 ft 303 kts 44°
2026-04-30 13:07 -8.43181 -35.18664 10807 ft 302 kts 44°
2026-04-30 13:08 -8.41656 -35.17221 10494 ft 298 kts 44°
2026-04-30 13:08 -8.40162 -35.15809 10273 ft 288 kts 44°
2026-04-30 13:08 -8.38727 -35.14453 10130 ft 277 kts 44°
2026-04-30 13:08 -8.37346 -35.13148 10001 ft 268 kts 44°
2026-04-30 13:09 -8.36005 -35.11881 9720 ft 267 kts 44°
2026-04-30 13:09 -8.34652 -35.10602 9448 ft 265 kts 44°
2026-04-30 13:09 -8.33305 -35.09329 9163 ft 264 kts 45°
2026-04-30 13:09 -8.31967 -35.08065 8887 ft 263 kts 45°
2026-04-30 13:10 -8.30631 -35.06804 8599 ft 262 kts 45°
2026-04-30 13:10 -8.29304 -35.05550 8334 ft 261 kts 45°
2026-04-30 13:10 -8.27903 -35.04387 8027 ft 263 kts 29°
2026-04-30 13:10 -8.26151 -35.03837 7791 ft 264 kts 15°
2026-04-30 13:11 -8.24360 -35.03430 7507 ft 263 kts 16°
2026-04-30 13:11 -8.22589 -35.03020 7364 ft 257 kts 16°
2026-04-30 13:11 -8.20865 -35.02618 7234 ft 252 kts 16°
2026-04-30 13:11 -8.19182 -35.02223 7112 ft 245 kts 17°
2026-04-30 13:12 -8.17562 -35.01866 6997 ft 241 kts 10°
2026-04-30 13:12 -8.15856 -35.02072 6685 ft 256 kts 345°
2026-04-30 13:12 -8.14130 -35.02644 6337 ft 265 kts 345°
2026-04-30 13:13 -8.10547 -35.03800 5525 ft 275 kts 345°
2026-04-30 13:13 -8.08703 -35.04385 5097 ft 280 kts 345°
2026-04-30 13:13 -8.04966 -35.05560 4260 ft 283 kts 345°
2026-04-30 13:14 -8.03079 -35.06146 3815 ft 285 kts 345°
2026-04-30 13:14 -8.01170 -35.06532 3358 ft 281 kts
2026-04-30 13:14 -7.98004 -35.04810 2744 ft 252 kts 56°
2026-04-30 13:15 -7.97196 -35.03296 2480 ft 240 kts 74°
2026-04-30 13:15 -7.96217 -35.00297 2289 ft 211 kts 79°
2026-04-30 13:15 -7.96246 -34.98912 2174 ft 192 kts 113°
2026-04-30 13:16 -7.96954 -34.97824 1937 ft 185 kts 137°
2026-04-30 13:16 -7.97999 -34.97156 1822 ft 173 kts 159°
2026-04-30 13:16 -7.99135 -34.96757 1787 ft 174 kts 161°
2026-04-30 13:17 -8.01450 -34.96001 1756 ft 177 kts 161°
2026-04-30 13:17 -8.02612 -34.95621 1729 ft 172 kts 161°
2026-04-30 13:17 -8.04786 -34.94909 1411 ft 155 kts 161°
2026-04-30 13:18 -8.05781 -34.94582 1220 ft 147 kts 161°
2026-04-30 13:18 -8.07667 -34.93963 916 ft 142 kts 161°
2026-04-30 13:18 -8.08616 -34.93640 771 ft 146 kts 159°
2026-04-30 13:19 -8.09595 -34.93319 543 ft 150 kts 160°
2026-04-30 13:19 -8.10575 -34.93000 294 ft 147 kts 160°
2026-04-30 13:19 -8.11515 -34.92694 61 ft 132 kts 159°
2026-04-30 13:19 -8.12319 -34.92421 35 ft 107 kts 160°
2026-04-30 13:20 -8.12886 -34.92233 38 ft 64 kts 161°
2026-04-30 13:20 -8.13149 -34.92147 34 ft 18 kts 162°
2026-04-30 13:20 -8.13245 -34.92070 36 ft 18 kts 129°
2026-04-30 13:20 -8.13305 -34.92000 36 ft 10 kts 131°
2026-04-30 13:21 -8.13354 -34.91947 37 ft 10 kts 136°
2026-04-30 13:21 -8.13378 -34.91926 37 ft 4 kts 145°
2026-04-30 13:21 -8.13406 -34.91913 37 ft 4 kts 159°
2026-04-30 13:22 -8.13420 -34.91895 38 ft 1 kts 90°
2026-04-30 13:22 -8.13418 -34.91884 38 ft 2 kts 79°
2026-04-30 13:22 -8.13410 -34.91854 38 ft 2 kts 71°
2026-04-30 13:23 -8.13405 -34.91840 35 ft 2 kts 71°
2026-04-30 13:23 -8.13403 -34.91835 36 ft 0 kts 70°